TimeCDT,TemperatureF,Dew PointF,Humidity,Sea Level PressureIn,VisibilityMPH,Wind Direction,Wind SpeedMPH,Gust SpeedMPH,PrecipitationIn,Events,Conditions,WindDirDegrees,DateUTC
12:15 AM,41.0,41.0,100,30.30,10.0,Calm,Calm,-,0.00,,Clear,0,2013-04-25 05:15:00
12:35 AM,41.0,41.0,100,30.30,9.0,Calm,Calm,-,0.00,,Clear,0,2013-04-25 05:35:00
12:55 AM,39.2,39.2,100,30.30,10.0,Calm,Calm,-,0.00,,Clear,0,2013-04-25 05:55:00
1:15 AM,39.2,39.2,100,30.29,10.0,Calm,Calm,-,0.00,,Clear,0,2013-04-25 06:15:00
1:35 AM,39.2,39.2,100,30.29,10.0,Calm,Calm,-,0.00,,Clear,0,2013-04-25 06:35:00
1:55 AM,39.2,39.2,100,30.29,9.0,Calm,Calm,-,0.00,,Clear,0,2013-04-25 06:55:00
2:15 AM,39.2,39.2,100,30.29,9.0,Calm,Calm,-,0.00,,Clear,0,2013-04-25 07:15:00
2:35 AM,37.4,37.4,100,30.30,10.0,Calm,Calm,-,0.00,,Clear,0,2013-04-25 07:35:00
2:55 AM,37.4,37.4,100,30.30,9.0,Calm,Calm,-,0.00,,Clear,0,2013-04-25 07:55:00
3:15 AM,37.4,37.4,100,30.31,10.0,Calm,Calm,-,0.00,,Clear,0,2013-04-25 08:15:00
3:35 AM,37.4,37.4,100,30.31,9.0,Calm,Calm,-,0.00,,Clear,0,2013-04-25 08:35:00
3:55 AM,37.4,37.4,100,30.31,10.0,Calm,Calm,-,0.00,,Clear,0,2013-04-25 08:55:00
4:15 AM,37.4,37.4,100,30.31,10.0,Calm,Calm,-,0.00,,Clear,0,2013-04-25 09:15:00
4:35 AM,35.6,35.6,100,30.32,5.0,Calm,Calm,-,0.00,,Clear,0,2013-04-25 09:35:00
4:55 AM,35.6,35.6,100,30.33,8.0,Calm,Calm,-,0.00,,Clear,0,2013-04-25 09:55:00
5:15 AM,35.6,35.6,100,30.32,7.0,Calm,Calm,-,0.00,,Clear,0,2013-04-25 10:15:00
5:35 AM,35.6,35.6,100,30.33,10.0,Calm,Calm,-,0.00,,Clear,0,2013-04-25 10:35:00
5:55 AM,35.6,35.6,100,30.34,9.0,Calm,Calm,-,0.00,,Clear,0,2013-04-25 10:55:00
6:15 AM,35.6,35.6,100,30.34,8.0,Calm,Calm,-,0.00,,Clear,0,2013-04-25 11:15:00
6:35 AM,35.6,35.6,100,30.34,8.0,Calm,Calm,-,0.00,,Clear,0,2013-04-25 11:35:00
6:50 AM,33.8,33.8,100,30.36,8.0,Calm,Calm,-,N/A,,Clear,0,2013-04-25 11:50:00
6:55 AM,35.6,35.6,100,30.35,10.0,Calm,Calm,-,0.00,,Clear,0,2013-04-25 11:55:00
7:50 AM,41.0,41.0,100,30.38,10.0,Calm,Calm,-,N/A,,Clear,0,2013-04-25 12:50:00
9:50 AM,51.8,41.0,67,30.41,10.0,Calm,Calm,-,N/A,,Clear,0,2013-04-25 14:50:00
10:50 AM,55.4,39.2,54,30.40,10.0,Calm,Calm,-,N/A,,Clear,0,2013-04-25 15:50:00
11:50 AM,59.0,37.4,45,30.40,10.0,NNE,6.9,-,N/A,,Clear,30,2013-04-25 16:50:00
12:53 PM,60.8,37.4,42,30.38,10.0,North,4.6,-,N/A,,Clear,350,2013-04-25 17:53:00
1:45 PM,62.6,39.2,42,30.37,10.0,Calm,Calm,-,N/A,,Clear,0,2013-04-25 18:45:00
2:50 PM,64.4,37.4,37,30.36,10.0,Calm,Calm,-,N/A,,Clear,0,2013-04-25 19:50:00
3:50 PM,66.2,37.4,35,30.33,10.0,Calm,Calm,-,N/A,,Clear,0,2013-04-25 20:50:00
4:50 PM,66.2,37.4,35,30.32,10.0,Calm,Calm,-,N/A,,Clear,0,2013-04-25 21:50:00
5:45 PM,66.2,35.6,32,30.32,10.0,NNE,6.9,-,N/A,,Partly Cloudy,30,2013-04-25 22:45:00
6:50 PM,64.4,35.6,34,30.32,10.0,ENE,3.5,-,N/A,,Partly Cloudy,60,2013-04-25 23:50:00
7:50 PM,60.8,35.6,39,30.32,10.0,ENE,3.5,-,N/A,,Partly Cloudy,60,2013-04-26 00:50:00
9:15 PM,57.2,35.6,44,30.32,10.0,Calm,Calm,-,0.00,,Clear,0,2013-04-26 02:15:00
9:35 PM,55.4,41.0,58,30.33,9.0,Calm,Calm,-,0.00,,Clear,0,2013-04-26 02:35:00
9:55 PM,53.6,41.0,62,30.34,10.0,Calm,Calm,-,0.00,,Clear,0,2013-04-26 02:55:00
10:15 PM,55.4,37.4,51,30.34,10.0,Calm,Calm,-,0.00,,Clear,0,2013-04-26 03:15:00
10:35 PM,53.6,39.2,58,30.34,10.0,Calm,Calm,-,0.00,,Clear,0,2013-04-26 03:35:00
10:55 PM,53.6,41.0,62,30.34,10.0,Calm,Calm,-,0.00,,Clear,0,2013-04-26 03:55:00
11:15 PM,51.8,41.0,67,30.34,10.0,Calm,Calm,-,0.00,,Clear,0,2013-04-26 04:15:00
11:35 PM,51.8,39.2,62,30.33,10.0,East,5.8,-,0.00,,Clear,90,2013-04-26 04:35:00
11:55 PM,51.8,39.2,62,30.33,10.0,East,4.6,-,0.00,,Clear,100,2013-04-26 04:55:00